Date Time,107 Temp (*F),107 RH (%),95 Temp,95 RH,108 Temp,108 RH,102 Temp,102 RH,96 Temp,96 RH,110 Temp,110 RH,87 Temp,87 RH,,82 Temp,82 RH,82 Intensity
11/10/00 10:01 AM,65.59,34.7,61.48,36.5,61.48,32.9,61.48,36.7,63.54,35.6,62.85,37.5,64.22,33.6,,62.85,33.7,1
11/10/00 10:03 AM,66.28,34.4,62.17,36.8,62.17,33.4,62.85,36.5,63.54,35.8,62.85,37.6,64.22,34,,62.85,33.7,1
11/10/00 10:06 AM,66.96,34.3,62.17,37.4,62.17,33.8,63.54,36.4,63.54,36.2,62.85,37.8,64.22,34.5,,62.85,35.1,1
11/10/00 10:08 AM,67.65,34.2,62.17,37.9,62.85,34,64.22,36.5,63.54,36.4,62.85,38,64.22,35.1,,62.85,35.1,1
11/10/00 10:11 AM,68.33,34.1,62.85,38.5,63.54,34.3,64.91,36.4,63.54,36.6,63.54,38.1,64.22,35.7,,63.54,36.2,1
11/10/00 10:13 AM,68.33,34.1,62.85,38.9,63.54,34.8,65.59,36.3,63.54,36.8,63.54,38.3,63.54,36.2,,63.54,36.2,1
11/10/00 10:16 AM,69.02,34,63.54,39.3,64.22,35.1,66.28,36.2,64.22,36.9,63.54,38.4,63.54,36.8,,64.22,37.3,1
11/10/00 10:18 AM,69.71,34.1,63.54,39.8,64.22,35.3,66.96,36.1,64.22,37.3,64.22,38.5,63.54,37.4,,64.22,37.3,1
11/10/00 10:21 AM,69.71,34.1,63.54,40.3,64.91,35.6,66.96,36.1,64.22,37.4,64.22,38.8,64.22,37.8,,64.91,37.9,1
11/10/00 10:23 AM,70.39,34,64.22,40.6,65.59,35.9,67.65,36,64.22,37.6,64.22,39,64.22,38.2,,64.91,37.9,1
11/10/00 10:26 AM,70.39,34.2,64.22,40.9,65.59,36.1,68.33,35.9,64.22,37.8,64.91,38.9,66.28,51,,65.59,39.1,1
11/10/00 10:28 AM,71.08,36.1,67.65,51.4,67.65,37.8,69.02,36.2,69.02,47.7,72.46,48.7,72.46,47.3,,65.59,39.1,1
11/10/00 10:31 AM,72.46,36.1,72.46,47.3,71.77,37.7,71.08,36.5,73.15,45.4,74.53,44.6,74.53,42,,72.46,42.2,19
11/10/00 10:33 AM,74.53,40.8,75.92,52.4,74.53,42.9,73.84,36.2,75.92,39.2,75.22,40.1,75.22,39.2,,72.46,42.2,19
11/10/00 10:36 AM,75.92,36.1,78.01,35.4,75.92,35.8,75.22,36.7,77.31,36.6,75.92,38.5,75.22,37.6,,77.31,39.2,21
11/10/00 10:38 AM,75.92,33.9,77.31,33,76.62,33.3,76.62,42.4,78.01,35.1,75.92,37.1,75.92,36.3,,77.31,39.2,21
11/10/00 10:41 AM,75.92,34.3,76.62,32.5,79.41,36.8,78.71,42.7,78.01,34,76.62,36.4,76.62,35.7,,78.71,36.9,13
11/10/00 10:43 AM,76.62,33.8,75.92,32.4,78.71,39.1,78.71,40.5,78.71,33.3,77.31,35.9,76.62,34.7,,78.71,36.9,13
11/10/00 10:46 AM,76.62,33.3,75.92,32.2,77.31,39.5,78.01,40.6,79.41,32.3,77.31,35.2,77.31,33.5,,75.22,40.9,518
11/10/00 10:48 AM,76.62,32.5,75.92,31.9,76.62,40.5,78.01,39.2,79.41,31.9,77.31,34.6,77.31,33.2,,75.22,40.9,518
11/10/00 10:51 AM,77.31,32,75.92,32.4,76.62,40.4,78.01,40.2,79.41,31.4,77.31,34.6,77.31,33.2,,51.08,34.4,518
11/10/00 10:53 AM,77.31,31.7,75.92,32.4,76.62,40.8,78.01,40.3,79.41,31.2,77.31,34.4,77.31,33,,51.08,34.4,518
11/10/00 10:56 AM,77.31,31.7,75.92,32.4,75.92,41.2,78.01,41.1,79.41,31,77.31,34.1,77.31,33.2,,45.38,50.6,518
11/10/00 10:58 AM,77.31,32,75.22,32.5,75.92,41.1,78.01,40.3,79.41,31,77.31,33.9,77.31,33,,45.38,50.6,518
11/10/00 11:01 AM,77.31,31.5,75.92,32.4,75.92,41.7,78.01,40.5,80.12,30.9,77.31,33.9,77.31,32.6,,43.19,59.9,518
11/10/00 11:03 AM,77.31,31.7,75.92,32.4,75.92,42,78.01,40.5,80.12,30.6,78.01,33.8,78.01,32.5,,43.19,59.9,518
11/10/00 11:06 AM,77.31,32,75.92,31.9,75.92,41.5,78.01,40.6,80.12,30.6,78.01,33.6,78.01,32.3,,43.19,64.7,518
11/10/00 11:08 AM,77.31,31,75.92,31.9,75.92,41.7,78.01,40.3,80.12,30.1,78.01,33.4,78.01,32.3,,43.19,64.7,518
11/10/00 11:11 AM,77.31,31.3,75.92,31.9,76.62,40.8,78.01,40,80.12,29.9,78.01,33.4,78.01,32.1,,46.82,66.9,518
11/10/00 11:13 AM,77.31,31.3,75.92,32.2,76.62,40.4,78.01,40.6,80.12,29.9,78.01,33.1,78.01,32.1,,46.82,66.9,518
11/10/00 11:16 AM,77.31,31.3,75.92,32.2,77.31,40.1,78.01,40.5,80.12,29.9,78.01,33.1,78.01,32.1,,56.66,57.7,518
11/10/00 11:18 AM,77.31,31.5,75.92,32.2,77.31,40.3,78.01,40.3,80.12,29.9,78.01,33.1,78.01,32.1,,56.66,57.7,518
11/10/00 11:21 AM,77.31,31.3,75.92,32.2,77.31,40.6,78.01,40.9,80.12,29.9,78.01,32.9,78.01,31.4,,50.38,51.2,518
11/10/00 11:23 AM,77.31,31,75.92,32.2,77.31,40.3,78.01,40.9,80.12,29.9,78.01,32.7,78.01,31.6,,50.38,51.2,518
11/10/00 11:26 AM,77.31,31,75.92,32.2,77.31,40.6,78.01,40.9,80.12,29.9,78.01,32.7,78.71,31.3,,49.67,54.1,518
11/10/00 11:28 AM,77.31,31.5,75.92,32.2,77.31,40.3,78.01,40.6,80.12,29.6,78.01,32.7,78.71,31.1,,49.67,54.1,518
11/10/00 11:31 AM,77.31,31.5,75.92,31.9,77.31,39.5,78.01,40.9,80.12,29.6,78.01,32.7,78.71,31.1,,53.19,46.1,518
11/10/00 11:33 AM,77.31,30.8,75.92,31.9,77.31,39.8,78.01,40.8,80.12,29.6,78.01,32.5,78.71,30.8,,53.19,46.1,518
11/10/00 11:36 AM,77.31,31.5,75.92,32.2,77.31,39.7,78.01,40.3,80.82,29.5,78.01,32.5,78.71,31.1,,47.53,54.8,518
11/10/00 11:38 AM,77.31,31.5,75.92,32.4,77.31,39.5,78.71,40.5,80.82,29.5,78.01,32.5,78.71,31.1,,47.53,54.8,518
11/10/00 11:41 AM,77.31,31.3,75.92,32.2,77.31,39.3,78.71,40.2,80.82,29.5,78.01,32.7,78.71,31.3,,48.96,56.7,518
11/10/00 11:43 AM,77.31,30.8,75.92,31.9,77.31,39,78.71,39.5,80.82,29.5,78.01,32.7,78.71,30.6,,48.96,56.7,518
11/10/00 11:46 AM,77.31,30.5,75.92,31.7,77.31,38.7,78.71,39.6,80.82,29.3,78.01,32.3,78.71,30.3,,55.97,50.5,518
11/10/00 11:48 AM,77.31,30.8,75.92,31.7,78.01,38.6,78.71,40.2,80.82,29.3,78.01,32.3,79.41,30,,55.97,50.5,518
11/10/00 11:51 AM,77.31,30.8,75.92,31.7,78.01,38.5,78.71,39.5,80.12,29.3,78.01,32.3,79.41,30.2,,53.19,45.2,518
11/10/00 11:53 AM,77.31,30.8,75.92,31.7,78.01,38.9,78.71,40.4,80.12,29.3,78.01,32.3,79.41,30,,53.19,45.2,518
11/10/00 11:56 AM,77.31,31,75.92,32.2,78.01,37.8,78.71,39.8,80.12,29.6,78.01,32.5,79.41,30,,60.8,45,518
11/10/00 11:58 AM,77.31,30.8,75.92,31.7,78.01,37.5,78.71,39.5,80.12,29.9,78.01,32.5,79.41,30,,60.8,45,518
11/10/00 12:01 PM,77.31,30.8,75.92,31.9,78.01,37.3,78.71,39.6,80.12,29.9,78.01,32.7,79.41,30,,63.54,35.2,518
11/10/00 12:03 PM,77.31,30.5,75.92,31.9,78.71,37.1,78.71,39,80.12,29.9,78.01,32.7,79.41,30,,63.54,35.2,518
11/10/00 12:06 PM,77.31,30.8,75.92,31.7,78.71,36.9,78.71,40.1,80.12,29.6,78.01,32.7,79.41,30,,57.35,36.9,518
11/10/00 12:08 PM,77.31,30.5,75.92,31.7,78.71,36.9,78.71,39.6,80.12,29.9,78.01,32.3,79.41,29.7,,57.35,36.9,518
11/10/00 12:11 PM,77.31,30.8,75.92,32.2,78.71,37.1,78.71,39.6,80.12,29.9,78.01,32.7,78.71,30.1,,52.49,42.3,518
11/10/00 12:13 PM,77.31,30.5,75.92,32.2,78.71,36.9,78.71,39.8,80.12,29.9,78.01,32.7,78.71,30.1,,52.49,42.3,518
11/10/00 12:16 PM,77.31,31,75.92,32.2,78.01,36.8,78.71,39.3,80.12,29.9,78.01,32.9,79.41,30,,48.25,50,518
11/10/00 12:18 PM,77.31,31.3,75.92,32.4,78.01,36.5,78.71,39.1,79.41,30.2,78.01,32.7,79.41,29.7,,48.25,50,518
11/10/00 12:21 PM,77.31,31,75.92,32.4,78.01,36.8,78.71,39.6,79.41,30.2,78.01,32.7,79.41,30,,47.53,57.1,518
11/10/00 12:23 PM,77.31,30.8,75.92,32.4,78.71,36.6,78.71,39,79.41,30.2,78.01,32.9,78.71,30.1,,47.53,57.1,518
11/10/00 12:26 PM,77.31,30.8,75.92,32.4,78.71,36.4,78.71,39.3,79.41,30.5,78.01,32.9,79.41,30.5,,48.25,60,518
11/10/00 12:28 PM,77.31,31.5,75.92,33,78.71,36.2,78.71,39.5,80.12,30.9,78.01,33.4,79.41,31.2,,48.25,60,518
11/10/00 12:31 PM,77.31,32.2,75.92,33.7,79.41,36.5,78.71,40.4,80.12,31.1,78.01,33.8,78.71,31.8,,47.53,62.4,518
11/10/00 12:33 PM,77.31,32.8,75.92,34.4,79.41,36.8,78.71,40.8,80.12,31.3,78.01,34.1,78.71,32,,47.53,62.4,518
11/10/00 12:36 PM,77.31,33.5,75.92,35.4,79.41,36.8,78.71,40.7,80.12,31.3,78.01,34.5,78.71,32.6,,46.82,62,518
11/10/00 12:38 PM,77.31,33.9,76.62,35.5,79.41,36.6,78.71,41.7,80.82,31.2,78.01,34.7,78.71,33,,46.82,62,518
11/10/00 12:41 PM,77.31,34.2,76.62,35.8,79.41,36.1,78.71,41.6,80.82,31.2,78.01,34.7,78.71,33,,47.53,63.5,518
11/10/00 12:43 PM,77.31,34.6,76.62,36,80.12,35.7,78.71,41,80.82,31.2,78.01,34.9,78.71,33.3,,47.53,63.5,518
11/10/00 12:46 PM,78.01,34.9,76.62,36.2,80.12,36,78.71,41.6,81.53,31.4,78.71,35,78.71,33.5,,46.82,63.8,518
11/10/00 12:48 PM,78.01,34.9,77.31,36.1,80.12,35.1,79.41,40.9,81.53,31.1,78.71,35.2,79.41,33.6,,46.82,63.8,518
11/10/00 12:51 PM,78.01,35.1,77.31,36.1,80.12,35.8,79.41,41.3,81.53,31.1,78.71,35.3,79.41,33.8,,46.82,65.3,518
11/10/00 12:53 PM,78.01,35.3,77.31,35.9,80.12,35.7,79.41,41.2,81.53,31.1,78.71,35.3,79.41,34.3,,46.82,65.3,518
11/10/00 12:56 PM,78.01,35.3,77.31,36.3,80.12,35.5,79.41,41.6,81.53,31.1,78.71,35.3,79.41,35.4,,44.65,66.6,518
11/10/00 12:58 PM,78.01,35.3,77.31,35.9,80.12,36.2,79.41,41.2,82.24,30.8,78.71,35.3,79.41,34.1,,44.65,66.6,518
11/10/00 1:01 PM,78.01,35.1,77.31,35.7,80.12,36.7,79.41,41.2,82.24,30.8,79.41,35.2,79.41,33.9,,44.65,68.9,518
11/10/00 1:03 PM,78.01,34.9,77.31,35.7,80.12,35.8,79.41,40.7,82.24,30.8,79.41,34.9,79.41,33.8,,44.65,68.9,518
11/10/00 1:06 PM,78.01,35.1,78.01,35.6,80.12,36,79.41,42.5,82.24,30.6,79.41,34.9,79.41,34.5,,43.92,71.4,518
11/10/00 1:08 PM,78.71,35.2,78.01,35.6,80.12,36,79.41,42,82.24,30.8,79.41,35.8,79.41,35.8,,43.92,71.4,518
11/10/00 1:11 PM,78.71,35.3,78.01,36,80.12,35.5,79.41,43.1,82.24,31,79.41,36.5,79.41,37,,43.92,72.2,518
11/10/00 1:13 PM,78.71,35.5,78.01,36.3,80.82,36.1,79.41,44.1,82.24,31.3,79.41,37.5,79.41,37.6,,43.92,72.2,518
11/10/00 1:16 PM,78.71,36.1,78.01,36.7,80.82,36.6,80.12,46.1,82.24,31.5,79.41,37.8,80.12,37.5,,43.19,73.9,518
11/10/00 1:18 PM,78.71,36.4,78.01,37,80.82,37.7,80.12,45.8,82.95,31.6,79.41,38.7,80.82,37.4,,43.19,73.9,518
11/10/00 1:21 PM,78.71,36.9,78.01,37.3,80.82,37.6,80.12,46.9,82.95,31.8,80.12,38,80.82,37.7,,43.92,73.9,518
11/10/00 1:23 PM,78.71,37.2,78.01,37.5,80.82,37.4,80.12,46.3,82.95,32,80.12,38.5,80.82,38.2,,43.92,73.9,518
11/10/00 1:26 PM,78.71,37.4,78.01,37.8,80.82,37.9,80.12,46.8,82.95,32.2,80.12,38.5,81.53,38.1,,43.92,73.4,518
11/10/00 1:28 PM,78.71,37.6,78.01,38.1,80.82,37.9,80.12,46.6,82.95,32.4,80.12,39.1,81.53,38.4,,43.92,73.4,518
11/10/00 1:31 PM,78.71,37.9,78.71,38.2,80.82,38.1,80.12,47.3,82.95,32.8,80.12,39.4,81.53,38.4,,43.19,74.9,518
11/10/00 1:33 PM,79.41,38.1,78.01,38.6,80.82,37.9,80.12,49.1,82.95,33,80.12,40.3,81.53,38.6,,43.19,74.9,518
11/10/00 1:36 PM,79.41,38.3,78.71,38.7,80.82,38.1,80.12,48.5,82.95,33.2,80.12,40.8,81.53,38.6,,43.92,74.8,516
11/10/00 1:38 PM,79.41,38.3,78.71,38.8,80.82,38.7,80.12,47.9,82.95,33.4,80.12,41.1,82.24,38.8,,43.92,74.8,516
11/10/00 1:41 PM,79.41,38.4,78.71,39,80.82,37.9,80.12,47.9,82.95,33.4,80.12,40.9,82.24,38.8,,43.19,74.9,504
11/10/00 1:43 PM,79.41,38.7,78.71,39.3,80.82,38.4,80.12,49.6,82.95,33.8,80.12,41.9,82.24,38.9,,43.19,74.9,504
11/10/00 1:46 PM,79.41,38.9,78.71,39.3,80.82,38.5,80.12,48.5,82.95,34.2,80.12,42.1,82.24,38.9,,43.92,74.8,494
11/10/00 1:48 PM,79.41,39,78.71,39.5,80.82,38.5,80.12,49.7,82.95,34,80.12,41.2,82.24,39.1,,43.92,74.8,494
11/10/00 1:51 PM,79.41,39.2,78.71,39.5,80.82,38.5,80.12,48.6,82.95,34.4,80.12,41.8,82.24,39.4,,43.92,74.8,481
11/10/00 1:53 PM,79.41,39.2,78.71,39.5,80.82,37.9,80.12,49.7,82.95,34.4,80.12,42.5,82.24,39.9,,43.92,74.8,481
11/10/00 1:56 PM,79.41,39.4,78.71,39.9,80.82,39.1,80.12,49.3,82.95,34.6,80.12,44.1,82.24,40.3,,43.92,75.8,469
11/10/00 1:58 PM,79.41,39.5,78.71,39.8,80.82,38.2,80.12,48.8,82.95,34.6,80.12,43.7,82.24,41,,43.92,75.8,469
11/10/00 2:01 PM,79.41,39.7,78.71,40.2,80.82,38.8,80.12,50.1,82.95,34.6,80.12,44.4,82.24,40.5,,43.92,74.8,457
11/10/00 2:03 PM,79.41,39.8,79.41,40.3,80.82,39,80.12,49.6,82.95,34.9,80.12,44.9,82.24,40.6,,43.92,74.8,457
11/10/00 2:06 PM,79.41,39.8,79.41,40.1,80.82,39.3,80.12,49.6,82.95,34.9,80.82,45.2,82.24,41.3,,43.92,75.8,445
11/10/00 2:08 PM,79.41,39.8,79.41,40.3,80.82,38.5,80.12,49.4,82.95,35.3,80.82,45.2,82.24,41.3,,43.92,75.8,445
11/10/00 2:11 PM,79.41,39.8,79.41,40.3,80.82,38.5,80.12,49.1,82.95,35.4,80.82,43.7,82.24,41.5,,43.92,76.4,437
11/10/00 2:13 PM,79.41,40.3,79.41,40.6,80.82,39.9,80.12,49.6,83.67,35.2,80.82,44.8,82.24,41.3,,43.92,76.4,437
11/10/00 2:16 PM,80.12,40.3,79.41,40.7,80.82,39.5,80.12,50.4,83.67,35.2,80.82,45.2,82.24,41.9,,43.92,78.1,422
11/10/00 2:18 PM,80.12,40.3,79.41,40.4,80.82,41.3,80.12,50.6,83.67,35.2,80.82,43.6,82.24,41.6,,43.92,78.1,422
11/10/00 2:21 PM,80.12,40.2,79.41,40.7,80.82,41,80.12,49.9,83.67,35.2,80.82,43.2,82.24,41.5,,43.92,76.4,412
11/10/00 2:23 PM,80.12,40.3,79.41,40.9,80.82,40.1,80.12,50.4,83.67,35.5,80.82,43.2,82.24,41.8,,43.92,76.4,412
11/10/00 2:26 PM,80.12,40.2,79.41,40.9,80.82,40.7,80.12,48.9,83.67,35.7,80.82,44.6,82.24,41.3,,43.92,76.9,402
11/10/00 2:28 PM,80.12,40.3,79.41,40.7,80.82,42,80.12,49.7,83.67,35.7,80.82,45.2,82.24,40.9,,43.92,76.9,402
11/10/00 2:31 PM,80.12,40.2,79.41,40.7,80.82,40.1,80.12,49.7,83.67,35.7,80.82,45.4,82.24,41,,43.92,77.5,388
11/10/00 2:33 PM,80.12,40.2,79.41,40.3,80.82,41.3,80.12,49.7,83.67,35.3,80.82,44.3,82.24,40.8,,43.92,77.5,388
11/10/00 2:36 PM,80.12,40,79.41,40.6,80.82,40.8,80.12,49.9,83.67,35.5,80.82,44.2,82.24,40.8,,43.92,77.5,382
11/10/00 2:38 PM,80.12,40.5,79.41,40.4,80.82,42,80.12,49.9,83.67,35.3,80.82,43.7,82.24,40.8,,43.92,77.5,382
11/10/00 2:41 PM,80.12,40.3,79.41,40.6,80.82,42.3,80.12,49.9,83.67,35.5,80.82,43,82.24,41.5,,44.65,77.4,371
11/10/00 2:43 PM,80.12,40,79.41,40.3,80.82,43,80.12,50.2,83.67,35.7,80.82,43.5,82.24,41.5,,44.65,77.4,371
11/10/00 2:46 PM,80.12,39.7,79.41,40,80.82,41.8,80.12,49.7,83.67,36,81.53,43.6,82.24,41.3,,44.65,76.9,359
11/10/00 2:48 PM,80.12,39.4,79.41,39.7,80.82,42.4,80.12,49.4,83.67,35.8,81.53,43.6,82.24,40.3,,44.65,76.9,359
11/10/00 2:51 PM,80.12,39.2,79.41,39.4,80.82,42,80.12,49.9,83.67,36,81.53,42.2,82.24,41,,44.65,76.3,349
11/10/00 2:53 PM,80.12,38.9,79.41,39,80.82,42.4,80.12,49.7,83.67,35.7,81.53,43.4,82.95,41.2,,44.65,76.3,349
11/10/00 2:56 PM,80.12,38.8,79.41,38.9,80.82,42.1,80.12,49.7,83.67,35.8,81.53,43.5,82.95,42.3,,44.65,75.8,339
11/10/00 2:58 PM,80.12,38.5,79.41,39,80.82,41.5,80.12,49.3,83.67,35.7,81.53,43.2,82.95,42.4,,44.65,75.8,339
11/10/00 3:01 PM,80.12,38.3,79.41,38.7,80.82,41.8,80.12,49.4,83.67,35.7,81.53,43.6,82.95,41.1,,44.65,75.8,329
11/10/00 3:03 PM,80.12,38,79.41,38.4,80.82,42.3,80.12,49.3,83.67,35.5,81.53,43.2,82.95,40.4,,44.65,75.8,329
11/10/00 3:06 PM,80.12,38,79.41,37.9,80.82,42.1,80.12,48.3,83.67,35.3,82.24,42.5,82.95,39.9,,44.65,75.3,319
11/10/00 3:08 PM,80.12,38,79.41,38.4,80.82,42.4,80.12,48.2,83.67,35.3,82.24,42.1,82.95,39.9,,44.65,75.3,319
11/10/00 3:11 PM,80.12,38,79.41,38.4,80.12,42.1,80.12,48.5,83.67,35.3,82.24,42.1,82.95,39.4,,44.65,75.8,310
11/10/00 3:13 PM,80.12,38,79.41,38.3,80.12,42.4,80.12,47.6,83.67,35.3,82.24,42.2,82.95,39.8,,44.65,75.8,310
11/10/00 3:16 PM,80.12,37.7,79.41,38.4,80.12,42.2,80.12,47.4,83.67,35.3,82.24,42.5,82.95,39.8,,44.65,75.8,298
11/10/00 3:18 PM,80.12,37.7,79.41,38.3,80.12,42.7,80.12,47.7,83.67,36.3,82.24,42.5,82.95,40.7,,44.65,75.8,298
11/10/00 3:21 PM,80.12,37.5,79.41,38.6,80.12,42.8,80.12,48.2,83.67,35.7,82.95,42.6,82.24,40.2,,44.65,75.8,288
11/10/00 3:23 PM,80.12,37.7,79.41,38.1,80.12,42.7,80.12,47.6,83.67,35.7,82.95,42.3,82.24,39.9,,44.65,75.8,288
11/10/00 3:26 PM,80.12,37.7,79.41,37.9,80.12,42.8,80.12,48.3,83.67,35.5,82.95,41.7,82.24,39.7,,44.65,75.3,278
11/10/00 3:28 PM,80.12,37.5,79.41,37.6,80.12,42.1,80.12,47.9,83.67,35.3,82.95,41.1,82.24,39.7,,44.65,75.3,278
11/10/00 3:31 PM,80.12,37.4,79.41,37.3,80.12,42.1,80.12,47.6,83.67,35.2,82.95,41.1,82.24,39.9,,44.65,75.3,270
11/10/00 3:33 PM,80.12,37.2,79.41,37.8,79.41,42.6,80.12,48.3,83.67,35.3,82.95,40.5,82.24,39.9,,44.65,75.3,270
11/10/00 3:36 PM,80.12,37.2,79.41,37.9,79.41,42.5,80.12,47.7,83.67,35.3,82.95,40.1,82.24,40,,44.65,75.8,260
11/10/00 3:38 PM,80.12,37.2,79.41,38.3,79.41,43.4,80.12,47.9,83.67,35.2,82.95,40.7,82.24,40,,44.65,75.8,260
11/10/00 3:41 PM,80.12,37.4,79.41,38.1,79.41,42.9,80.12,47.3,83.67,35.2,82.95,40.8,82.24,39.9,,44.65,75.8,249
11/10/00 3:43 PM,80.82,37.3,79.41,38.3,79.41,43.7,80.12,47.4,83.67,35.3,82.95,41.1,82.24,41,,44.65,75.8,249
11/10/00 3:46 PM,80.82,36.9,79.41,37.9,79.41,44.4,80.12,46.9,83.67,34.8,82.95,39.4,82.24,40,,44.65,76.9,233
11/10/00 3:48 PM,80.82,37.1,80.12,38,79.41,44.2,80.12,47.3,83.67,34.6,82.95,39.9,82.24,39.7,,44.65,76.9,233
11/10/00 3:51 PM,80.82,37.1,80.12,37.7,79.41,43.7,80.12,46.9,83.67,34.4,82.95,39.9,82.24,39.7,,44.65,75.8,217
11/10/00 3:53 PM,80.82,36.9,80.12,37.5,79.41,43.9,80.12,47.1,83.67,34.3,82.95,40.1,82.24,39.7,,44.65,75.8,217
11/10/00 3:56 PM,80.82,36.9,80.12,37.5,79.41,44.7,80.12,46.6,83.67,34.3,82.95,39.8,82.24,39.4,,44.65,76.3,205
11/10/00 3:58 PM,80.82,36.8,80.12,37.2,79.41,44.5,80.12,46.5,83.67,34.3,82.24,38.6,82.24,38.5,,44.65,76.3,205
11/10/00 4:01 PM,80.82,36.9,80.12,37.4,79.41,44.8,80.82,47,83.67,34.4,82.24,38.9,82.24,38.8,,43.92,76.4,192
11/10/00 4:03 PM,80.82,36.9,80.12,37.4,79.41,44.2,80.82,46.3,83.67,35.2,82.24,39.4,82.24,38.3,,43.92,76.4,192
11/10/00 4:06 PM,80.82,37.3,79.41,37.8,79.41,44.7,80.12,46.1,83.67,34.4,82.24,38.5,82.24,37.7,,43.92,77.5,176
11/10/00 4:08 PM,80.82,36.9,79.41,37.6,79.41,44.1,80.82,46.1,83.67,34.1,82.24,37.9,82.24,36.9,,43.92,77.5,176
11/10/00 4:11 PM,80.82,36.9,79.41,37.1,79.41,43.8,80.82,45.4,83.67,33.5,82.24,37.4,82.24,36.2,,43.92,76.9,158
11/10/00 4:13 PM,80.82,36.6,79.41,37.1,79.41,43.2,80.12,45.8,83.67,33.3,82.24,36.9,82.24,36.4,,43.92,76.9,158
11/10/00 4:16 PM,80.82,36.6,79.41,36.8,79.41,42.5,80.82,45.1,83.67,33.7,82.24,36.9,82.24,36.1,,43.92,76.4,139
11/10/00 4:18 PM,80.82,36.3,79.41,36.5,79.41,42.8,80.82,45.2,83.67,33.9,81.53,37.2,82.24,35.5,,43.92,76.4,139
11/10/00 4:21 PM,80.82,36.1,79.41,36.3,79.41,43.4,80.12,45.9,83.67,33.7,81.53,37.2,82.24,35.4,,43.92,76.4,121
11/10/00 4:23 PM,80.82,35.6,79.41,35.8,78.71,42.9,80.82,44,83.67,33.5,81.53,37.2,82.24,35,,43.92,76.4,121
11/10/00 4:26 PM,80.82,35.4,79.41,36,78.71,42.9,80.82,44.6,83.67,33.1,81.53,37,82.24,35.2,,43.92,76.4,99
11/10/00 4:28 PM,80.82,35.2,79.41,35.8,78.71,43,80.82,45.7,83.67,33.1,81.53,37,82.24,35,,43.92,76.4,99
11/10/00 4:31 PM,80.82,35.2,79.41,35.8,78.71,43.2,80.82,45.2,83.67,33.5,81.53,36.8,82.24,34.8,,43.19,77.5,82
11/10/00 4:33 PM,80.82,35,79.41,35.6,78.71,43,80.82,44.8,83.67,33.1,81.53,36.8,82.24,34.3,,43.19,77.5,82
11/10/00 4:36 PM,80.82,35,79.41,35.8,78.71,43.3,80.82,45.4,83.67,32.9,81.53,36.7,82.24,34.3,,43.19,77.5,62
11/10/00 4:38 PM,80.82,35,79.41,35.8,78.71,43,80.82,46.6,83.67,32.9,81.53,36.5,82.24,34.3,,43.19,77.5,62
11/10/00 4:41 PM,80.82,35,79.41,36,78.71,43.6,80.82,45.1,83.67,32.7,81.53,36.5,82.24,34.3,,43.19,78.1,44
11/10/00 4:43 PM,80.82,35.2,79.41,36.1,78.71,43.3,80.82,44.9,83.67,32.5,81.53,36.3,82.24,33.9,,43.19,78.1,44
11/10/00 4:46 PM,80.12,35.3,79.41,36.3,78.71,44.2,80.82,45.2,83.67,32.5,81.53,36.2,82.24,33.7,,43.19,78.8,34
11/10/00 4:48 PM,80.12,35.3,79.41,36.1,78.71,43.8,80.82,46,83.67,32.3,81.53,36.2,82.24,33.9,,43.19,78.8,34
11/10/00 4:51 PM,80.12,35.1,79.41,35.8,78.71,43.8,80.82,45.8,83.67,32.5,81.53,36.2,82.24,33.7,,42.46,79.5,17
11/10/00 4:53 PM,80.82,35,79.41,35.8,78.71,43.8,80.82,45.8,83.67,32.5,81.53,36.3,82.24,33.7,,42.46,79.5,17
11/10/00 4:56 PM,80.12,35.1,79.41,35.8,78.71,43.3,80.82,45.4,83.67,32.7,81.53,36.2,82.24,33.7,,42.46,80.9,11
11/10/00 4:58 PM,80.12,35.1,79.41,35.8,78.71,43.3,80.82,45.1,83.67,32.9,81.53,36.3,82.24,33.5,,42.46,80.9,11
11/10/00 5:01 PM,80.12,35.1,79.41,35.8,78.71,43.5,80.82,45.7,83.67,32.7,81.53,36.2,82.24,33.5,,42.46,81.7,5
11/10/00 5:03 PM,80.12,35.1,79.41,35.8,78.71,43.2,80.82,44.9,83.67,32.5,81.53,36.2,82.24,33.5,,42.46,81.7,5
11/10/00 5:06 PM,80.12,35.1,79.41,36,78.71,43.2,80.82,45.4,83.67,32.5,81.53,36.2,82.24,33.5,,42.46,82.5,3
11/10/00 5:08 PM,80.12,35,79.41,36,78.71,42.9,80.82,45.7,83.67,32.5,81.53,36,82.24,33.5,,42.46,82.5,3
11/10/00 5:11 PM,80.12,35.1,79.41,36,78.71,43.6,80.82,45.1,83.67,32.7,81.53,36,82.24,33.5,,42.46,82.5,1
11/10/00 5:13 PM,80.12,35,79.41,35.8,78.01,42.7,80.82,46.1,83.67,32.5,81.53,36,82.24,33.5,,42.46,82.5,1
11/10/00 5:16 PM,80.12,35.1,79.41,36.1,78.71,42.9,80.82,45.2,83.67,32.5,81.53,36,82.24,33.7,,42.46,83.4,1
11/10/00 5:18 PM,80.12,35,79.41,36,78.71,43.2,80.82,46,83.67,32.3,81.53,36,82.24,33.5,,42.46,83.4,1
11/10/00 5:21 PM,80.12,35,79.41,36,78.71,42.6,80.82,45.5,83.67,32.5,81.53,36,82.24,33.3,,42.46,83.4,1
11/10/00 5:23 PM,80.12,35.3,79.41,36.3,78.71,43.3,80.82,44.2,83.67,32.1,81.53,35.8,82.24,33.5,,42.46,83.4,1
11/10/00 5:26 PM,80.12,35.5,79.41,36.3,78.01,43.4,80.82,44.2,83.67,31.9,81.53,35.5,82.24,33.3,,42.46,84.3,1
11/10/00 5:28 PM,80.12,35.7,79.41,36.6,78.01,43.1,80.82,44.6,83.67,31.7,81.53,35.5,82.24,33.5,,42.46,84.3,1
11/10/00 5:31 PM,80.12,35.8,79.41,36.8,78.01,43.1,80.82,44,83.67,31.7,81.53,35.3,82.24,33.7,,41.72,84.3,1
11/10/00 5:33 PM,80.12,35.7,79.41,36.6,78.01,43.3,80.82,43.6,83.67,31.7,81.53,35.5,82.24,34.1,,41.72,84.3,1
11/10/00 5:36 PM,80.12,35.8,79.41,36.8,78.01,43.4,80.82,43.5,83.67,31.7,81.53,35.8,81.53,34.4,,41.72,85.3,1
11/10/00 5:38 PM,80.12,36.2,79.41,36.5,78.01,43,80.82,43.6,83.67,31.7,81.53,35.6,81.53,34.4,,41.72,85.3,1
11/10/00 5:41 PM,80.12,36,79.41,36.6,78.01,42.7,80.82,43.6,83.67,31.5,81.53,35.5,81.53,34.2,,41.72,84.3,1
11/10/00 5:43 PM,80.12,36.2,79.41,37,78.01,42.8,80.82,43.5,83.67,31.5,81.53,35.5,81.53,34.2,,41.72,84.3,1
11/10/00 5:46 PM,80.12,36.2,79.41,36.8,78.01,42,80.82,42.6,83.67,31.5,81.53,35.8,81.53,34.4,,41.72,84.3,1
11/10/00 5:48 PM,80.12,36.2,80.12,36.5,78.01,42.2,80.82,43.5,83.67,31.5,81.53,35.5,81.53,34.2,,41.72,84.3,1
11/10/00 5:51 PM,80.12,36,80.12,36.4,78.01,42.1,80.82,42.4,83.67,31.5,81.53,35.5,81.53,34.4,,41.72,84.3,1
11/10/00 5:53 PM,80.12,36,80.12,35.8,78.01,41.5,80.82,43,83.67,31.5,81.53,35.5,81.53,34.4,,41.72,84.3,1
11/10/00 5:56 PM,80.12,36,80.12,35.7,78.01,42.4,80.82,42,83.67,31.5,81.53,35.5,81.53,34.6,,41.72,85.3,1
11/10/00 5:58 PM,80.12,36,80.12,35.5,78.01,42,80.82,42.7,83.67,31.5,81.53,35.5,81.53,34.6,,41.72,85.3,1
11/10/00 6:01 PM,80.12,36,80.12,35.7,78.01,42.5,80.82,41.8,83.67,31.3,81.53,35.8,81.53,34.4,,41.72,84.3,1
11/10/00 6:03 PM,80.12,36,80.12,35.8,78.01,42.2,80.82,43,83.67,31.3,81.53,35.5,81.53,34.2,,41.72,84.3,1
11/10/00 6:06 PM,80.12,36.2,80.12,36,78.01,42.1,80.82,43,83.67,31.3,81.53,35.3,81.53,34.4,,40.97,85.4,1
11/10/00 6:08 PM,80.12,36.4,80.12,35.8,78.01,42,80.82,42.6,83.67,31.3,81.53,35.5,81.53,34.6,,40.97,85.4,1
11/10/00 6:11 PM,80.12,36,80.12,35.8,78.01,42,80.82,42.9,83.67,31.3,81.53,35.6,81.53,34.6,,40.97,86.4,1
11/10/00 6:13 PM,80.12,36.2,80.12,35.8,78.01,41.7,80.82,42.9,83.67,31.1,81.53,35.3,81.53,34.8,,40.97,86.4,1
11/10/00 6:16 PM,80.12,36.2,80.12,35.7,78.01,41.7,80.82,42.3,83.67,31.3,81.53,35.3,81.53,34.4,,40.97,86.4,1
11/10/00 6:18 PM,80.12,36,80.12,35.7,78.01,41.5,80.82,42.3,83.67,31.3,81.53,35.1,81.53,34.2,,40.97,86.4,1
11/10/00 6:21 PM,80.12,36,80.12,35.8,78.01,41.7,80.82,42.4,83.67,31.3,81.53,35.5,81.53,34.4,,40.97,87.6,1
11/10/00 6:23 PM,80.12,36,80.12,35.8,78.01,41.8,80.82,44,83.67,31.1,81.53,35.3,81.53,34.2,,40.97,87.6,1
11/10/00 6:26 PM,80.12,36,80.12,35.7,78.01,42.2,80.82,43.5,83.67,31.1,81.53,35.3,81.53,34.6,,40.23,87.6,1
11/10/00 6:28 PM,80.12,35.8,80.12,35.7,78.01,42.5,80.82,43.2,83.67,31.1,81.53,35.3,81.53,34.8,,40.23,87.6,1
11/10/00 6:31 PM,80.12,35.3,80.12,35.3,78.01,42.5,80.82,45.2,83.67,31.3,81.53,35.3,81.53,34.4,,40.23,87.6,1
11/10/00 6:33 PM,80.12,35.3,80.12,35,78.01,42.8,80.82,44.9,83.67,31.5,81.53,35.5,81.53,34.8,,40.23,87.6,1
11/10/00 6:36 PM,80.12,35,80.12,34.8,78.01,42.5,80.82,44.5,83.67,31.7,81.53,35.8,81.53,34.9,,40.23,87.6,1
11/10/00 6:38 PM,80.12,34.8,80.12,34.4,78.01,43,80.82,45.1,83.67,31.9,81.53,35.8,81.53,34.8,,40.23,87.6,1
11/10/00 6:41 PM,80.12,34.4,80.12,34.6,78.01,42.7,80.82,43.9,83.67,31.9,81.53,35.8,81.53,34.6,,39.48,88.9,1
11/10/00 6:43 PM,80.12,34.4,80.12,34.4,78.01,42.5,80.82,44,83.67,32.1,81.53,35.8,81.53,34.2,,39.48,88.9,1
11/10/00 6:46 PM,80.12,34.2,80.12,34,78.01,42.2,80.82,44,83.67,32.1,81.53,36,81.53,34.6,,40.23,88.9,1
11/10/00 6:48 PM,80.12,34.2,80.12,34.6,78.01,42.8,80.82,43.5,83.67,32.1,81.53,36,81.53,34.6,,40.23,88.9,1
11/10/00 6:51 PM,80.12,34,80.12,34.6,78.01,42.5,80.82,42.7,83.67,32.1,81.53,35.8,81.53,34.6,,40.23,88.9,1
11/10/00 6:53 PM,80.12,34,80.12,33.8,78.01,42.7,80.82,43.6,83.67,32.1,81.53,36.2,81.53,34.8,,40.23,88.9,1
11/10/00 6:56 PM,80.12,33.8,80.12,33.8,78.01,42.7,80.82,44,83.67,32.1,81.53,36.2,81.53,34.8,,40.23,90.4,1
11/10/00 6:58 PM,80.12,33.8,80.12,33.6,78.01,42.7,80.82,42.7,83.67,32.1,81.53,36,80.82,34.9,,40.23,90.4,1
11/10/00 7:01 PM,80.12,33.8,80.12,33.8,78.01,42.2,80.82,42.3,83.67,32.1,80.82,36.1,80.82,34.5,,39.48,90.4,1
11/10/00 7:03 PM,80.12,33.6,80.12,33.5,78.01,42.4,80.82,42.3,83.67,32.1,80.82,36.1,80.82,34.3,,39.48,90.4,1